Find Starlink 32350

NORAD ID: 61063 Int'l Des: 2024-164 Owner: SPXS Country: US Constellation: starlink operational
LEOCIRCULAR

現在のビュー

3D地球を読み込み中...

About Starlink 32350

Starlink 32350 (NORAD 61063) is a starlink constellation satellite (v2 mini) launched Sep 13, 2024 by SPXS of US. It operates in LEO, CIRCULAR orbit with a mass of 730.00 kg.

次回通過

Passes for default location (London). Set your location on the main map for personalized predictions.

高度履歴

Loading altitude history...

軌道要素

1 61063U 24164P 26237.78945462 -.00000062 00000-0 97586-5 0 9997
2 61063 53.1607 24.5225 0001189 98.1045 262.0091 15.31702595109385
Epoch: Aug 25, 2026 • Age: 14 hours

現在のステータス

高度 485.3 km
遠地点 / 近地点 N/A
速度 7.62 km/s
衛星直下点 -41.54°S, 126.07°W
打ち上げ日 Sep 13, 2024
運用期間 1.9 years
タイプ internet

技術仕様

分類 Payload
質量 730.00 kg
乾燥質量 700.00 kg
総質量 730.00 kg
長さ 0.30 m
直径 4.10 m
スパン 29.00 m
形状 Box + pan
製造者 SPXS
バスタイプ Starlink V2M
フェーズステータス In Orbit
所有者/国 SPXS/US

Most Searched